{"data":{"norad_id":59135,"intl_designator":"2024-043AP","name":"VSP RF A1","alt_names":[],"object_type":"PAYLOAD","status":"ACTIVE","operator":null,"country":"BEL","launch_date":"2024-03-04","launch_site_code":"AFWTR","launch_vehicle":null,"mission":null,"orbit_class":"UNKNOWN","rcs_meters":null,"size_class":null,"mass_kg":null,"dimensions":null,"purposes":[],"wikipedia_slug":null,"has_3d_model":false,"image_url":null,"decayed_at":null,"tle_current":{"epoch":"2026-09-22T23:02:18.348576Z","epoch_age_seconds":45479,"freshness":"FRESH","line1":"1 59135U 24043AP  26265.95993459  .00002197  00000+0  98896-4 0  9992","line2":"2 59135  97.5714  42.9618 0001231 105.8081 254.3290 15.22165337141879","mean_motion":15.22165337,"eccentricity":0.0001231,"inclination_deg":97.5714,"raan_deg":42.9618,"arg_perigee_deg":105.8081,"mean_anomaly_deg":254.329,"bstar":9.8896e-5,"rev_number":14187,"period_min":94.602075411733,"perigee_km":498.46397441773,"apogee_km":500.15720201394,"semimajor_km":6877.4475882158,"source":"CELESTRAK","updated_at":"2026-09-23T09:00:19.181851Z"}}}